Date String (YYYY-MM-DD hh:mm:ss) UTC,Instrument flags,absolute air pressure of the measurement (hPa),sample flow rate (lpm),inlet stack bypass flow (lpm),air temperature of the measurement (°C),ambient temperature measured by the external sensor (°C),aerosol sample conditioner tube jacket temperature (°C),OPC LED temperature (°C),internal box temperature (°C),relative humidity of the measurement (%),span deviation,mass concentration of particles derived from Lorenz-Mie calculation of OPC scattering (μg/m³),mass concentration of particles derived from Lorenz-Mie calculation of OPC scattering (μg/m³),mass concentration of particles derived from Lorenz-Mie calculation of OPC scattering (μg/m³)
DateTimeUTC,F1_M11,P_M11,Q1_M11,Q2_M11,T1_M11,T2_M11,T3_M11,T4_M11,T5_M11,U1_M11,ZSPAN_M11,X2_M11,X0_M11,X1_M11
2024-04-15 17:00:00,SystemResetWarning,0817.1,5.00,000.00,025.4,024.8,000.0,033.6,027.3,013.9,0000.0,0004.37,0016.13,0002.99
2024-04-15 17:01:00,SystemResetWarning,0817.0,5.00,000.00,025.5,025.0,000.0,033.6,027.4,014.0,0000.0,0004.40,0016.07,0003.02
2024-04-15 17:02:00,SystemResetWarning,0816.9,5.00,000.00,025.5,025.1,000.0,033.6,027.4,013.8,0000.0,0004.41,0015.63,0003.05
2024-04-15 17:03:00,SystemResetWarning,0816.9,5.00,000.00,025.6,025.2,000.0,033.7,027.5,013.1,0000.0,0004.42,0015.98,0003.08
2024-04-15 17:04:00,SystemResetWarning,0816.9,4.99,000.00,025.6,025.0,000.0,033.7,027.4,013.4,0000.0,0004.40,0015.99,0003.08
2024-04-15 17:05:00,SystemResetWarning,0816.9,5.00,000.00,025.4,023.2,000.0,033.8,026.4,013.3,0000.0,0004.40,0015.89,0003.08
2024-04-15 17:06:00,SystemResetWarning,0816.8,5.02,000.00,025.0,021.9,000.0,033.8,025.7,013.8,0000.0,0004.37,0015.35,0003.07
2024-04-15 17:07:00,SystemResetWarning,0816.8,5.01,000.00,024.8,022.3,000.0,033.7,025.7,014.4,0000.0,0004.34,0016.39,0003.05
2024-04-15 17:08:00,SystemResetWarning,0816.9,4.99,000.00,024.8,022.7,000.0,033.6,026.0,014.3,0000.0,0004.33,0016.97,0003.06
2024-04-15 17:09:00,SystemResetWarning,0816.9,5.00,000.00,024.8,023.0,000.0,033.5,026.3,015.1,0000.0,0004.32,0015.58,0003.08
2024-04-15 17:10:00,SystemResetWarning,0816.9,5.01,000.00,024.9,023.4,000.0,033.4,026.5,014.4,0000.0,0004.31,0016.13,0003.10
2024-04-15 17:11:00,SystemResetWarning,0816.9,5.00,000.00,025.0,023.7,000.0,033.4,026.7,014.8,0000.0,0004.32,0017.18,0003.10
2024-04-15 17:12:00,SystemResetWarning,0816.9,4.99,000.00,025.0,024.0,000.0,033.4,026.8,014.0,0000.0,0004.34,0018.09,0003.10
2024-04-15 17:13:00,SystemResetWarning,0816.9,5.00,000.00,025.1,024.2,000.0,033.4,026.9,014.0,0000.0,0004.41,0018.68,0003.10
2024-04-15 17:14:00,SystemResetWarning,0816.9,5.01,000.00,025.2,024.5,000.0,033.4,027.0,013.9,0000.0,0004.41,0018.18,0003.09
2024-04-15 17:15:00,SystemResetWarning,0816.9,5.00,000.00,025.2,024.6,000.0,033.4,027.1,013.2,0000.0,0004.44,0018.00,0003.12
2024-04-15 17:16:00,SystemResetWarning,0816.9,5.00,000.00,025.3,024.8,000.0,033.4,027.2,013.0,0000.0,0004.44,0017.61,0003.13
2024-04-15 17:17:00,SystemResetWarning,0816.9,5.00,000.00,025.4,025.0,000.0,033.5,027.3,013.1,0000.0,0004.47,0018.12,0003.14
2024-04-15 17:18:00,SystemResetWarning,0816.9,5.00,000.00,025.5,025.1,000.0,033.5,027.4,013.5,0000.0,0004.52,0016.72,0003.15
2024-04-15 17:19:00,SystemResetWarning,0816.8,4.99,000.00,025.5,025.2,000.0,033.6,027.5,013.3,0000.0,0004.52,0016.52,0003.14
2024-04-15 17:20:00,SystemResetWarning,0816.9,5.00,000.00,025.5,024.1,000.0,033.6,026.9,013.4,0000.0,0004.52,0016.27,0003.12
2024-04-15 17:21:00,SystemResetWarning,0816.9,5.02,000.00,025.1,022.2,000.0,033.7,025.8,013.6,0000.0,0004.50,0015.72,0003.10
2024-04-15 17:22:00,SystemResetWarning,0816.8,5.00,000.00,024.8,022.1,000.0,033.6,025.6,013.3,0000.0,0004.52,0014.05,0003.10
2024-04-15 17:23:00,SystemResetWarning,0816.8,4.99,000.00,024.7,022.5,000.0,033.5,025.8,013.8,0000.0,0004.51,0013.91,0003.09
2024-04-15 17:24:00,SystemResetWarning,0816.8,5.00,000.00,024.8,022.9,000.0,033.4,026.2,014.0,0000.0,0004.47,0013.21,0003.06
2024-04-15 17:25:00,SystemResetWarning,0816.8,5.00,000.00,024.8,023.2,000.0,033.4,026.5,013.4,0000.0,0004.48,0013.09,0003.06
2024-04-15 17:26:00,SystemResetWarning,0816.7,5.00,000.00,024.9,023.5,000.0,033.3,026.6,013.1,0000.0,0004.49,0014.02,0003.03
2024-04-15 17:27:00,SystemResetWarning,0816.7,5.00,000.00,024.9,023.8,000.0,033.3,026.8,013.0,0000.0,0004.52,0014.01,0003.01
2024-04-15 17:28:00,SystemResetWarning,0816.6,5.00,000.00,025.0,024.1,000.0,033.3,026.9,013.1,0000.0,0004.47,0013.71,0002.98
2024-04-15 17:29:00,SystemResetWarning,0816.5,5.00,000.00,025.1,024.3,000.0,033.4,027.0,013.1,0000.0,0004.42,0013.81,0002.97
2024-04-15 17:30:00,SystemResetWarning,0816.5,4.99,000.00,025.2,024.5,000.0,033.4,027.1,013.3,0000.0,0004.39,0013.15,0002.95
2024-04-15 17:31:00,SystemResetWarning,0816.5,5.00,000.00,025.2,024.6,000.0,033.4,027.2,013.0,0000.0,0004.34,0013.55,0002.94
2024-04-15 17:32:00,SystemResetWarning,0816.5,4.99,000.00,025.3,024.8,000.0,033.4,027.3,012.5,0000.0,0004.33,0013.13,0002.94
2024-04-15 17:33:00,SystemResetWarning,0816.5,5.00,000.00,025.4,024.9,000.0,033.5,027.4,012.1,0000.0,0004.31,0013.67,0002.92
2024-04-15 17:34:00,SystemResetWarning,0816.4,5.00,000.00,025.5,025.0,000.0,033.5,027.4,011.7,0000.0,0004.31,0012.85,0002.92
2024-04-15 17:35:00,SystemResetWarning,0816.3,4.99,000.00,025.5,024.7,000.0,033.6,027.2,011.7,0000.0,0004.27,0012.90,0002.92
2024-04-15 17:36:00,SystemResetWarning,0816.2,5.01,000.00,025.2,022.9,000.0,033.6,026.2,011.8,0000.0,0004.24,0012.85,0002.90
2024-04-15 17:37:00,SystemResetWarning,0816.2,5.01,000.00,024.9,021.9,000.0,033.6,025.6,013.0,0000.0,0004.24,0012.14,0002.89
2024-04-15 17:38:00,SystemResetWarning,0816.2,5.00,000.00,024.7,022.3,000.0,033.5,025.7,012.4,0000.0,0004.15,0012.80,0002.86
2024-04-15 17:39:00,SystemResetWarning,0816.2,4.99,000.00,024.7,022.7,000.0,033.4,026.0,012.0,0000.0,0004.15,0012.32,0002.85
2024-04-15 17:40:00,SystemResetWarning,0816.2,5.00,000.00,024.8,023.0,000.0,033.3,026.3,012.0,0000.0,0004.16,0011.79,0002.84
2024-04-15 17:41:00,SystemResetWarning,0816.2,5.01,000.00,024.8,023.4,000.0,033.3,026.5,012.1,0000.0,0004.18,0011.69,0002.83
2024-04-15 17:42:00,SystemResetWarning,0816.2,5.01,000.00,024.9,023.7,000.0,033.3,026.6,012.3,0000.0,0004.20,0012.22,0002.83
2024-04-15 17:43:00,SystemResetWarning,0816.2,5.00,000.00,025.0,024.0,000.0,033.3,026.8,012.3,0000.0,0004.16,0012.11,0002.82
2024-04-15 17:44:00,SystemResetWarning,0816.1,4.99,000.00,025.0,024.2,000.0,033.3,026.9,012.4,0000.0,0004.11,0011.49,0002.81
2024-04-15 17:45:00,SystemResetWarning,0816.1,5.00,000.00,025.1,024.5,000.0,033.3,027.0,012.0,0000.0,0004.06,0013.03,0002.81
2024-04-15 17:46:00,SystemResetWarning,0816.1,5.00,000.00,025.2,024.7,000.0,033.3,027.1,011.7,0000.0,0004.08,0012.95,0002.82
2024-04-15 17:47:00,SystemResetWarning,0816.1,5.00,000.00,025.3,024.8,000.0,033.4,027.2,012.0,0000.0,0004.09,0013.00,0002.82
2024-04-15 17:48:00,SystemResetWarning,0816.1,5.00,000.00,025.3,024.9,000.0,033.4,027.3,011.8,0000.0,0004.09,0013.00,0002.81
2024-04-15 17:49:00,SystemResetWarning,0816.1,5.01,000.00,025.4,025.1,000.0,033.4,027.3,011.5,0000.0,0004.15,0012.51,0002.83
2024-04-15 17:50:00,SystemResetWarning,0816.1,4.99,000.00,025.4,024.7,000.0,033.5,027.1,011.3,0000.0,0004.21,0013.06,0002.86
2024-04-15 17:51:00,SystemResetWarning,0816.1,4.99,000.00,025.2,022.8,000.0,033.6,026.0,011.5,0000.0,0004.22,0013.92,0002.86
2024-04-15 17:52:00,SystemResetWarning,0816.0,5.02,000.00,024.8,021.9,000.0,033.6,025.5,012.4,0000.0,0004.19,0015.21,0002.87
2024-04-15 17:53:00,SystemResetWarning,0816.0,4.99,000.00,024.7,022.3,000.0,033.5,025.6,012.3,0000.0,0004.21,0014.61,0002.88
2024-04-15 17:54:00,SystemResetWarning,0816.0,5.00,000.00,024.7,022.7,000.0,033.3,025.9,012.3,0000.0,0004.28,0015.45,0002.89
2024-04-15 17:55:00,SystemResetWarning,0816.0,5.00,000.00,024.7,023.0,000.0,033.3,026.2,012.3,0000.0,0004.36,0016.06,0002.89
2024-04-15 17:56:00,SystemResetWarning,0816.0,5.00,000.00,024.8,023.4,000.0,033.2,026.4,012.1,0000.0,0004.38,0014.92,0002.90
2024-04-15 17:57:00,SystemResetWarning,0815.9,4.99,000.00,024.8,023.7,000.0,033.2,026.6,011.7,0000.0,0004.35,0015.27,0002.90
2024-04-15 17:58:00,SystemResetWarning,0815.8,4.99,000.00,024.9,024.0,000.0,033.2,026.8,011.8,0000.0,0004.38,0015.84,0002.91
2024-04-15 17:59:00,SystemResetWarning,0815.8,5.00,000.00,025.0,024.2,000.0,033.2,026.9,011.7,0000.0,0004.35,0016.77,0002.92
